Find Starlink 34564

NORAD ID: 64852 Int'l Des: 2025-152 Owner: SPXS Country: US Constellation: starlink operational
LEOCIRCULARRETROGRADESSO

現在のビュー

3D地球を読み込み中...

Starlink 34564について

説明を読み込み中...

次回通過

Passes for default location (London). Set your location on the main map for personalized predictions.

高度履歴

Loading altitude history...

軌道要素

1 64852U 25152L 26150.00992551 .00006553 00000-0 45765-3 0 9994
2 64852 97.4275 5.1762 0001999 60.9741 299.1686 15.05660814 47656
Epoch: May 30, 2026 • Age: 10 hours

現在のステータス

高度 554.2 km
速度 7.59 km/s
衛星直下点 41.25°N, 38.77°W
打ち上げ日 Jul 19, 2025
運用期間 0.8 years
タイプ internet

技術仕様

分類 Payload
質量 575.00 kg
乾燥質量 530.00 kg
総質量 575.00 kg
長さ 0.30 m
直径 4.10 m
スパン 29.00 m
形状 Box + pan
製造者 SPXS
バスタイプ Starlink V2MO
フェーズステータス In Orbit
所有者/国 SPXS/US

Most Searched